Tracking 32938 objects as of 12-Jan-2026
HD Live streaming from Space Station
objects crossing your sky now

DELTA 1 R/B

Track DELTA 1 R/B now!
10-day predictions


NORAD ID: 7616
Int'l Code: 1975-004B
Perigee: 746.2 km
Apogee: 1,013.9 km
Inclination: 97.8 °
Period: 102.4 minutes
Semi major axis: 7251 km
RCS: 5.2306 m2 (large)
Launch date: January 22, 1975
Source: United States (US)
Launch site: AIR FORCE WESTERN TEST RANGE (AFWTR)

Note: This is a ROCKET BODY
Your satellite tracking list
Your tracking list is empty




NASA's NSSDC Master Catalog

Two Line Element Set (TLE):
1 07616U 75004B   26012.19558145  .00000281  00000-0  16572-3 0  9990
2 07616  97.7635  89.1637 0184621 241.3141 116.9363 14.06059936598476
Source of the keplerian elements: AFSPC